{"data":{"norad_id":60470,"intl_designator":"2024-149C","name":"PHISAT 2","alt_names":[],"object_type":"PAYLOAD","status":"ACTIVE","operator":null,"country":"UK","launch_date":"2024-08-16","launch_site_code":"AFWTR","launch_vehicle":null,"mission":null,"orbit_class":"UNKNOWN","rcs_meters":null,"size_class":null,"mass_kg":null,"dimensions":null,"purposes":[],"wikipedia_slug":null,"has_3d_model":false,"image_url":null,"decayed_at":null,"tle_current":{"epoch":"2026-09-22T10:55:44.324832Z","epoch_age_seconds":117386,"freshness":"FRESH","line1":"1 60470U 24149C   26265.45537413  .00005722  00000+0  18652-3 0  9990","line2":"2 60470  97.3703 344.1740 0000579 180.1515 179.9727 15.32208796116882","mean_motion":15.32208796,"eccentricity":5.79e-5,"inclination_deg":97.3703,"raan_deg":344.174,"arg_perigee_deg":180.1515,"mean_anomaly_deg":179.9727,"bstar":0.00018652,"rev_number":11688,"period_min":93.981969282468,"perigee_km":468.82725835849,"apogee_km":469.62018272993,"semimajor_km":6847.3607205442,"source":"CELESTRAK","updated_at":"2026-09-23T09:00:20.651747Z"}}}